Miscellaneous Local Product
Issued by NWS Hastings, NE

Home | Current Version | Previous Version | Graphics & Text | Print | Product List | Glossary On
Versions: 1 2 3 4 5 6 7 8 9 10 11 12 13 14 15 16 17 18 19 20 21 22 23 24 25 26 27 28 29 30 31 32 33 34 35 36 37 38 39 40 41 42 43 44 45 46 47 48 49 50
000
AXUS43 KGID 250302
MISGRI

GID CWA HOURLY WEATHER ROUNDUP
NATIONAL WEATHER SERVICE HASTINGS NE
900 PM CST FRI FEB 24 2017

NOTE: "FAIR" INDICATES FEW OR NO CLOUDS BELOW 12,000 FEET WITH NO
SIGNIFICANT WEATHER AND/OR OBSTRUCTIONS TO VISIBILITY.

...SOUTH CENTRAL NEBRASKA...

CITY           SKY/WX    TMP DP  RH WIND       PRES   REMARKS
GRAND ISLAND   CLEAR     19  14  81 NW13      30.10R WCI   6
HASTINGS       CLEAR     19  13  77 NW12      30.11R WCI   7
KEARNEY        CLEAR     18  10  73 NW10      30.12R WCI   6
ORD            CLEAR     19  12  74 NW9       30.09R WCI   8
YORK           CLOUDY    23  16  74 NW15      30.07R WCI  10
AURORA         CLEAR     22  15  76 NW14      30.08R WCI   9
LEXINGTON      CLOUDY    15  10  80 W8        30.13R WCI   4
HOLDREGE       CLOUDY    19  13  77 NW8       30.12R WCI   9
HEBRON         PTCLDY    22  17  79 NW8       30.11R WCI  13

...NEBRASKA PANHANDLE...

CITY           SKY/WX    TMP DP  RH WIND       PRES   REMARKS
CHADRON        CLOUDY     8   5  87 W3        30.07F
ALLIANCE       CLOUDY     2  -2  83 W6        30.05S WCI  -9
SCOTTSBLUFF    CLOUDY    13  10  88 N3        30.05S
SIDNEY         CLOUDY    10   7  87 W7        30.05F WCI  -1

...WESTERN AND NORTH CENTRAL NEBRASKA...

CITY           SKY/WX    TMP DP  RH WIND       PRES   REMARKS
VALENTINE      CLOUDY     8   3  80 W3        30.11R
AINSWORTH      CLOUDY    15  11  87 NW6       30.10R WCI   6
ONEILL         CLEAR     22  15  74 NW16      30.09R WCI   9
BROKEN BOW     CLEAR     17  11  77 NW13      30.10R WCI   4
IMPERIAL       CLOUDY    21  15  78 NW7       30.11R WCI  12
NORTH PLATTE   CLOUDY    12   6  77 NW6       30.13R WCI   3
MCCOOK         CLOUDY    19  12  74 W5        30.14R WCI  12

...EASTERN NEBRASKA...

CITY           SKY/WX    TMP DP  RH WIND       PRES   REMARKS
NORFOLK        CLOUDY    24  16  71 NW16      30.03R WCI  11
SO SIOUX CITY  CLOUDY    25  16  68 NW18      30.01R WCI  11
TEKAMAH        CLOUDY    20  13  74 NW10      30.01S WCI   9
COLUMBUS       CLOUDY    25  16  68 NW21      30.05R WCI  10
ALBION         PTCLDY    25  15  65 NW22      30.06R WCI  10
OMAHA EPPLEY   CLOUDY    24  16  71 NW15      30.00R WCI  11
OFFUTT AFB     PTCLDY    24  16  69 NW10      30.01R WCI  14
MILLARD        CLEAR     28  19  69 NW10      30.02R WCI  18
LINCOLN        PTCLDY    25  17  72 NW9       30.06R WCI  15
NEBRASKA CITY  PTCLDY    24  16  73 NW12      30.01R WCI  13
BEATRICE       PTCLDY    26  19  77 NW16      30.06R WCI  13
FALLS CITY     PTCLDY    25  18  74 NW16      30.02R WCI  12

...NORTHERN KANSAS...

CITY           SKY/WX    TMP DP  RH WIND       PRES   REMARKS
GOODLAND       CLOUDY    16  13  88 NW5       30.08R WCI   9
HILL CITY      CLOUDY    23  15  71 N10       30.15R WCI  12
PHILLIPSBURG   CLEAR     23  16  74 NW7       30.17R WCI  15
SMITH CENTER   CLEAR     18  14  86 NW9       30.16R WCI   6
HAYS           CLEAR     24  15  68 N12       30.15R WCI  13
RUSSELL        MOCLDY    24  15  68 N13       30.14R WCI  12
CONCORDIA      CLOUDY    24  18  77 NW13      30.12R WCI  12
SALINA         MOCLDY    28  16  60 NW17      30.15R WCI  16
TOPEKA         PTCLDY    26  21  81 NW14      30.08R WCI  14



USA.gov is the U.S. government's official web portal to all federal, state and local government web resources and services.